Погода в Степном

Россия / Волгоградская область     48°51′10″N   44°13′14″E
темп.,
°C
ветер,
м/с
пор.,
м/с
влажн.,
%
обл.,
%
осадки,
мм/ч
давл.,
гПа
погр.,
м
13 апреля, вт
вт1300:00+14в5114868 0.0 1025238
03:00+12в6124368 0.0 1025250
06:00+12в6133796 0.0 1026324
09:00+15вюв713325 0.0 1026547
12:00+20вюв811250 0.0 10251125
15:00+21вюв911210 0.0 10241818
18:00+19вюв611274 0.0 1023594
21:00+15вюв494027 0.0 1023159
14 апреля, ср
ср1400:00+12в464358 0.0 102289
03:00+11в4747100 0.0 1022113
06:00+11в4947100 0.0 1021165
09:00+15в6103388 0.0 1020450
12:00+20вюв792835 0.0 10181112
15:00+21вюв792697 0.0 10171631
18:00+19в593297 0.0 1016403
21:00+16вюв4838100 0.0 1016156
15 апреля, чт
чт1500:00+14зюз2355100 0.0 101551
03:00+13в2253100 0.0 101614
06:00+13в2252100 0.0 101531
09:00+17юв234098 0.0 1015318
12:00+20ююв333471 0.0 10141639
15:00+20ююв3232100 0.0 10132055
18:00+18ююз4647100 0.0 1014409
21:00+14зюз2463100 0.0 1014101
16 апреля, пт
пт1600:00+14з1166100 0.1 101431
03:00+13з1176100 1.3 101423
06:00+13з237353 0.1 101479
09:00+16з335643 0.1 1015597
12:00+19зсз334275 0.1 10142073
15:00+19з334198 0.1 10141521
18:00+17сз245099 0.0 1015196
21:00+15з235698 0.0 101574
17 апреля, сб
сб1700:00+13з3461100 0.0 101671
03:00+11зюз5878100 0.0 1017264
06:00+11зюз588763 0.0 1017302
09:00+14зюз557187 0.1 1018853
12:00+14зюз6663100 0.0 1018992
15:00+12зюз7771100 0.2 1019683
18:00+12з2571100 1.9 1019658
21:00+10ссз3687100 4.0 1020444